Regional Weather Roundup
Issued by NWS Northern Indiana

Home | Current Version | Previous Version | Graphics & Text | Print | Product List | Glossary On
Versions: 1 2 3 4 5 6 7 8 9 10 11 12 13 14 15 16 17 18 19 20 21 22 23 24 25 26 27 28 29 30 31 32 33 34 35 36 37 38 39 40 41 42 43 44 45 46 47 48 49 50
000
ASUS43 KIWX 080610
RWRIWX

KIWX WEATHER ROUNDUP
NATIONAL WEATHER SERVICE NORTHERN INDIANA
100 AM EST THU DEC 08 2016

NOTE: "FAIR" INDICATES FEW OR NO CLOUDS BELOW 12,000 FEET WITH NO
SIGNIFICANT WEATHER AND/OR OBSTRUCTIONS TO VISIBILITY.

* THESE STATIONS ARE NOT UNDER NWS QUALITY CONTROL. THEY ALSO MAY NOT
  REPORT WEATHER SUCH AS PRECIPITATION OR FOG.

INZ001>027-080700-
NORTHERN INDIANA

CITY           SKY/WX    TMP DP  RH WIND       PRES   REMARKS
GARY*          CLOUDY    26  17  66 W14       30.17S WCI  15
VALPARAISO     CLOUDY    24  15  68 W18       30.16F WCI  10
6HR MIN TEMP:  24; 6HR MAX TEMP:  28;

MICHIGAN CITY* CLOUDY    27  18  69 W12G21    30.15F WCI  16
LAPORTE*       FLURRIES  22  15  72 W15G22    30.15S WCI   9
6HR MIN TEMP:  22; 6HR MAX TEMP:  27;

KNOX*          CLOUDY    23   0  36 W15G25    30.17S WCI  10
SOUTH BEND     CLOUDY    24  17  74 W17G25    30.13R WCI  11
6HR MIN TEMP:  24; 6HR MAX TEMP:  27;

GOSHEN         CLOUDY    25  16  68 W17       30.12S WCI  12
6HR MIN TEMP:  25; 6HR MAX TEMP:  29;

MONTICELLO*    CLOUDY    25  14  63 NW17G23   30.19S WCI  11
6HR MIN TEMP:  24; 6HR MAX TEMP:  30;

LOGANSPORT*    CLOUDY    27  19  74 W13G22    30.19S WCI  16
ROCHESTER*     CLOUDY    27  19  74 W16G23    30.16R WCI  14
WARSAW*        CLOUDY    25  16  68 W16       30.13S WCI  12
ANGOLA*        CLOUDY    27  19  74 W15       30.07S WCI  15
FORT WAYNE     CLOUDY    26  18  71 W14G23    30.13S WCI  14
6HR MIN TEMP:  26; 6HR MAX TEMP:  31;

HUNTINGTON*    CLOUDY    25  18  76 W12G20    30.15R WCI  14
6HR MIN TEMP:  25; 6HR MAX TEMP:  31;

PERU/GRISSOM   CLOUDY    25  18  73 W16       30.15R WCI  12
6HR MIN TEMP:  24; 6HR MAX TEMP:  31;

MARION*        PTCLDY    25  18  75 W18G26    30.17S WCI  12
6HR MIN TEMP:  25; 6HR MAX TEMP:  89;


$$
INZ028>050-080700-
CENTRAL INDIANA

CITY           SKY/WX    TMP DP  RH WIND       PRES   REMARKS
LAFAYETTE      CLOUDY    24  17  74 W14       30.22R WCI  12
6HR MIN TEMP:  24; 6HR MAX TEMP:  29;

KOKOMO*        MOCLDY    25  18  74 W23       30.18R WCI  10
6HR MIN TEMP:  25; 6HR MAX TEMP:  30;

MUNCIE*        PTCLDY    28  18  66 W16G30    30.16S WCI  16
6HR MIN TEMP:  28; 6HR MAX TEMP:  33;

INDIANAPOLIS   MOCLDY    27  20  75 W12       30.20R WCI  17
6HR MIN TEMP:  27; 6HR MAX TEMP:  33;


$$
MIZ043>046-050>051-056>058-064>065-071>073-077>080-080700-
SOUTHWEST LOWER MICHIGAN

CITY           SKY/WX    TMP DP  RH WIND       PRES   REMARKS
BATTLE CREEK   CLOUDY    28  20  71 W18       30.04S WCI  15
6HR MIN TEMP:  28; 6HR MAX TEMP:  30;

BENTON HARBOR  CLOUDY    27  18  69 W22G30    30.11S WCI  13
6HR MIN TEMP:  27; 6HR MAX TEMP:  32;

COLDWATER*     CLOUDY    28  19  69 W14G23    30.06S WCI  17
6HR MIN TEMP:  28; 6HR MAX TEMP:  29;

HILLSDALE*     CLOUDY    27  19  74 W12       30.02F WCI  16
HOLLAND        CLOUDY    28  20  71 W16G23    30.06S WCI  16
6HR MIN TEMP:  27; 6HR MAX TEMP:  33;

GRAND RAPIDS   CLOUDY    27  19  72 W18       30.03F WCI  14
6HR MIN TEMP:  27; 6HR MAX TEMP:  33; 6HR PCP: TRACE;

KALAMAZOO      CLOUDY    28  19  69 W15G22    30.06S WCI  16
6HR MIN TEMP:  28; 6HR MAX TEMP:  31;

STURGIS*       CLOUDY    27  19  74 W13       30.07S WCI  16
6HR MIN TEMP:  27; 6HR MAX TEMP:  28;

THREE RIVERS*  CLOUDY    27  20  74 W13G20    30.09R WCI  16
6HR MIN TEMP:  27; 6HR MAX TEMP:  29;


$$
OHZ001>008-015>018-024>025-080700-
NORTHWEST OHIO

CITY           SKY/WX    TMP DP  RH WIND       PRES   REMARKS
WAUSEON*       CLOUDY    28  19  69 W17G25    30.08R WCI  16
DEFIANCE       CLOUDY    29  18  63 W10G22    30.11R WCI  20
6HR MIN TEMP:  29; 6HR MAX TEMP:  33;

FINDLAY        CLEAR     29  20  69 W18G28    30.09S WCI  16
6HR MIN TEMP:  29; 6HR MAX TEMP:  34;

TOLEDO EXPRESS CLOUDY    28  20  71 W15       30.08R WCI  16
6HR MIN TEMP:  28; 6HR MAX TEMP:  32;

TOLEDO METCALF CLOUDY    30  21  69 W16       30.08S WCI  19
6HR MIN TEMP:  30; 6HR MAX TEMP:  33;

LIMA           PTCLDY    28  22  78 W17       30.10F WCI  16
6HR MIN TEMP:  29; 6HR MAX TEMP:  32;


$$
AND FOR LAKE MICHIGAN COASTAL AND OPEN LAKE BUOY OBSERVATIONS

STATION/POSITION TEMP    WIND        PRES    VSBY  WAVE
                 AIR SEA DIR/SP/G                  HT/PER
                 (F)     (DEG/KT/KT) (MB)    (MI)  (FT/S)
CALUMET HARBOR           260/  9/ 16 1020.6S
MICHIGAN CITY     26     240/ 22/ 29   N/A

$$
&&




USA.gov is the U.S. government's official web portal to all federal, state and local government web resources and services.